Time,TemperatureF,DewpointF,PressureIn,WindDirection,WindDirectionDegrees,WindSpeedMPH,WindSpeedGustMPH,Humidity,HourlyPrecipIn,Conditions,Clouds,dailyrainin,SolarRadiationWatts/m^2,SoftwareType,DateUTC
2013-07-06 00:10:00,74.5,71.0,30.14,WSW,242,0.0,1.0,89,0.00,,,0.00,0,weatherlink.com 1.10,2013-07-06 04:10:00,
2013-07-06 00:25:00,74.0,71.0,30.14,WSW,242,0.0,0.0,90,0.00,,,0.00,0,weatherlink.com 1.10,2013-07-06 04:25:00,
2013-07-06 00:40:00,73.4,71.0,30.14,WSW,242,0.0,0.0,92,0.00,,,0.00,0,weatherlink.com 1.10,2013-07-06 04:40:00,
2013-07-06 00:55:00,73.0,71.0,30.14,WSW,242,0.0,0.0,93,0.00,,,0.00,0,weatherlink.com 1.10,2013-07-06 04:55:00,
2013-07-06 01:10:00,72.6,71.0,30.14,WSW,242,0.0,1.0,94,0.00,,,0.00,0,weatherlink.com 1.10,2013-07-06 05:10:00,
2013-07-06 01:25:00,72.6,71.0,30.14,WSW,242,0.0,0.0,94,0.00,,,0.00,0,weatherlink.com 1.10,2013-07-06 05:25:00,
2013-07-06 01:40:00,72.3,71.0,30.14,WSW,242,0.0,1.0,94,0.00,,,0.00,0,weatherlink.com 1.10,2013-07-06 05:40:00,
2013-07-06 01:55:00,72.3,71.0,30.14,WSW,242,0.0,1.0,95,0.00,,,0.00,0,weatherlink.com 1.10,2013-07-06 05:55:00,
2013-07-06 02:11:00,72.4,71.0,30.13,WSW,242,0.0,1.0,95,0.00,,,0.00,0,weatherlink.com 1.10,2013-07-06 06:11:00,
2013-07-06 02:26:00,72.2,71.0,30.14,WSW,242,0.0,2.0,95,0.00,,,0.00,0,weatherlink.com 1.10,2013-07-06 06:26:00,
2013-07-06 02:40:00,71.7,71.0,30.13,WSW,242,0.0,1.0,96,0.00,,,0.00,0,weatherlink.com 1.10,2013-07-06 06:40:00,
2013-07-06 02:55:00,71.9,71.0,30.13,WSW,242,0.0,2.0,96,0.00,,,0.00,0,weatherlink.com 1.10,2013-07-06 06:55:00,
2013-07-06 03:10:00,71.7,71.0,30.13,WSW,242,0.0,1.0,96,0.00,,,0.00,0,weatherlink.com 1.10,2013-07-06 07:10:00,
2013-07-06 03:26:00,71.2,70.0,30.13,WSW,242,0.0,2.0,96,0.00,,,0.00,0,weatherlink.com 1.10,2013-07-06 07:26:00,
2013-07-06 03:40:00,71.3,70.0,30.13,WSW,242,0.0,2.0,97,0.00,,,0.00,0,weatherlink.com 1.10,2013-07-06 07:40:00,
2013-07-06 03:56:00,70.6,70.0,30.14,WSW,242,0.0,0.0,97,0.00,,,0.00,0,weatherlink.com 1.10,2013-07-06 07:56:00,
2013-07-06 04:10:00,70.4,70.0,30.14,WSW,242,0.0,0.0,97,0.00,,,0.00,0,weatherlink.com 1.10,2013-07-06 08:10:00,
2013-07-06 04:25:00,70.2,69.0,30.13,WSW,242,0.0,0.0,97,0.00,,,0.00,0,weatherlink.com 1.10,2013-07-06 08:25:00,
2013-07-06 04:40:00,70.3,69.0,30.13,WSW,242,0.0,0.0,97,0.00,,,0.00,0,weatherlink.com 1.10,2013-07-06 08:40:00,
2013-07-06 04:55:00,69.8,69.0,30.13,WSW,242,0.0,0.0,98,0.00,,,0.00,0,weatherlink.com 1.10,2013-07-06 08:55:00,
2013-07-06 05:11:00,69.7,69.0,30.14,WSW,242,0.0,0.0,98,0.00,,,0.00,0,weatherlink.com 1.10,2013-07-06 09:11:00,
2013-07-06 05:26:00,69.4,69.0,30.14,WSW,242,0.0,0.0,98,0.00,,,0.00,0,weatherlink.com 1.10,2013-07-06 09:26:00,
2013-07-06 05:41:00,69.3,69.0,30.14,WSW,242,0.0,0.0,98,0.00,,,0.00,0,weatherlink.com 1.10,2013-07-06 09:41:00,
2013-07-06 05:56:00,69.1,69.0,30.15,WSW,242,0.0,0.0,98,0.00,,,0.00,0,weatherlink.com 1.10,2013-07-06 09:56:00,
2013-07-06 06:11:00,69.3,69.0,30.15,WSW,242,0.0,0.0,98,0.00,,,0.00,9,weatherlink.com 1.10,2013-07-06 10:11:00,
2013-07-06 06:26:00,69.4,69.0,30.15,WSW,242,0.0,0.0,98,0.00,,,0.00,14,weatherlink.com 1.10,2013-07-06 10:26:00,
2013-07-06 06:41:00,69.8,69.0,30.16,WSW,242,0.0,0.0,98,0.00,,,0.00,19,weatherlink.com 1.10,2013-07-06 10:41:00,
2013-07-06 06:56:00,70.4,70.0,30.16,WSW,242,0.0,1.0,99,0.00,,,0.00,23,weatherlink.com 1.10,2013-07-06 10:56:00,
2013-07-06 07:11:00,71.7,71.0,30.16,WSW,242,0.0,1.0,99,0.00,,,0.00,28,weatherlink.com 1.10,2013-07-06 11:11:00,
2013-07-06 07:26:00,72.6,72.0,30.16,WSW,242,0.0,1.0,99,0.00,,,0.00,32,weatherlink.com 1.10,2013-07-06 11:26:00,
2013-07-06 07:41:00,73.5,73.0,30.16,SW,235,2.0,4.0,99,0.00,,,0.00,35,weatherlink.com 1.10,2013-07-06 11:41:00,
2013-07-06 07:56:00,74.9,74.0,30.17,SW,227,0.0,4.0,98,0.00,,,0.00,39,weatherlink.com 1.10,2013-07-06 11:56:00,
2013-07-06 08:11:00,76.9,75.0,30.17,SW,215,3.0,5.0,95,0.00,,,0.00,301,weatherlink.com 1.10,2013-07-06 12:11:00,
2013-07-06 08:26:00,79.6,74.0,30.16,SW,225,2.0,6.0,84,0.00,,,0.00,362,weatherlink.com 1.10,2013-07-06 12:26:00,
2013-07-06 08:41:00,81.5,76.0,30.16,West,263,1.0,4.0,82,0.00,,,0.00,415,weatherlink.com 1.10,2013-07-06 12:41:00,
2013-07-06 08:56:00,81.4,74.0,30.16,West,259,6.0,9.0,78,0.00,,,0.00,462,weatherlink.com 1.10,2013-07-06 12:56:00,
2013-07-06 09:11:00,82.5,74.0,30.16,WSW,241,4.0,7.0,76,0.00,,,0.00,512,weatherlink.com 1.10,2013-07-06 13:11:00,
2013-07-06 09:26:00,82.9,74.0,30.16,WSW,248,4.0,8.0,74,0.00,,,0.00,555,weatherlink.com 1.10,2013-07-06 13:26:00,
2013-07-06 09:41:00,83.8,75.0,30.16,WSW,247,1.0,6.0,75,0.00,,,0.00,599,weatherlink.com 1.10,2013-07-06 13:41:00,
2013-07-06 09:56:00,84.6,76.0,30.16,West,263,1.0,5.0,75,0.00,,,0.00,638,weatherlink.com 1.10,2013-07-06 13:56:00,
2013-07-06 10:11:00,85.5,77.0,30.16,WSW,242,2.0,5.0,75,0.00,,,0.00,679,weatherlink.com 1.10,2013-07-06 14:11:00,
2013-07-06 10:27:00,85.7,76.0,30.16,WSW,240,2.0,6.0,73,0.00,,,0.00,715,weatherlink.com 1.10,2013-07-06 14:27:00,
2013-07-06 10:42:00,85.9,76.0,30.16,South,182,0.0,7.0,71,0.00,,,0.00,752,weatherlink.com 1.10,2013-07-06 14:42:00,
2013-07-06 10:57:00,86.0,77.0,30.15,SW,224,2.0,5.0,75,0.00,,,0.00,779,weatherlink.com 1.10,2013-07-06 14:57:00,
2013-07-06 11:12:00,87.0,76.0,30.15,SW,229,2.0,7.0,69,0.00,,,0.00,809,weatherlink.com 1.10,2013-07-06 15:12:00,
2013-07-06 11:27:00,87.3,77.0,30.14,WSW,246,1.0,6.0,72,0.00,,,0.00,835,weatherlink.com 1.10,2013-07-06 15:27:00,
2013-07-06 11:42:00,87.9,76.0,30.14,South,177,2.0,7.0,67,0.00,,,0.00,858,weatherlink.com 1.10,2013-07-06 15:42:00,
2013-07-06 11:57:00,88.3,75.0,30.14,South,188,2.0,7.0,64,0.00,,,0.00,884,weatherlink.com 1.10,2013-07-06 15:57:00,
2013-07-06 12:12:00,88.9,77.0,30.14,WSW,244,4.0,6.0,68,0.00,,,0.00,912,weatherlink.com 1.10,2013-07-06 16:12:00,
2013-07-06 12:42:00,89.3,77.0,30.13,WSW,248,2.0,7.0,66,0.00,,,0.00,1004,weatherlink.com 1.10,2013-07-06 16:42:00,
2013-07-06 12:57:00,88.7,72.0,30.13,SSE,155,4.0,6.0,58,0.00,,,0.00,958,weatherlink.com 1.10,2013-07-06 16:57:00,
2013-07-06 13:12:00,88.6,77.0,30.12,SW,217,0.0,6.0,68,0.00,,,0.00,976,weatherlink.com 1.10,2013-07-06 17:12:00,
2013-07-06 13:27:00,87.7,75.0,30.11,South,183,2.0,7.0,65,0.00,,,0.00,183,weatherlink.com 1.10,2013-07-06 17:27:00,
2013-07-06 14:12:00,89.7,76.0,30.10,SW,220,4.0,9.0,65,0.00,,,0.00,944,weatherlink.com 1.10,2013-07-06 18:12:00,
2013-07-06 14:57:00,90.8,76.0,30.09,SW,229,2.0,9.0,62,0.00,,,0.00,900,weatherlink.com 1.10,2013-07-06 18:57:00,
2013-07-06 15:27:00,91.1,75.0,30.09,SW,223,6.0,9.0,59,0.00,,,0.00,800,weatherlink.com 1.10,2013-07-06 19:27:00,
2013-07-06 15:42:00,91.1,75.0,30.08,South,169,4.0,7.0,60,0.00,,,0.00,840,weatherlink.com 1.10,2013-07-06 19:42:00,
2013-07-06 16:12:00,87.4,73.0,30.07,South,187,1.0,6.0,63,0.00,,,0.00,151,weatherlink.com 1.10,2013-07-06 20:12:00,
2013-07-06 16:42:00,89.4,74.0,30.07,WSW,257,5.0,7.0,61,0.00,,,0.00,158,weatherlink.com 1.10,2013-07-06 20:42:00,
2013-07-06 17:00:00,87.4,73.0,30.06,SW,236,3.0,7.0,63,0.00,,,0.00,95,weatherlink.com 1.10,2013-07-06 21:00:00,
2013-07-06 17:13:00,88.8,74.0,30.06,SSE,153,3.0,9.0,62,0.00,,,0.00,587,weatherlink.com 1.10,2013-07-06 21:13:00,
2013-07-06 17:28:00,88.0,73.0,30.05,South,169,2.0,9.0,62,0.00,,,0.00,91,weatherlink.com 1.10,2013-07-06 21:28:00,
2013-07-06 18:13:00,87.3,74.0,30.05,WSW,252,4.0,8.0,64,0.00,,,0.00,62,weatherlink.com 1.10,2013-07-06 22:13:00,
2013-07-06 18:28:00,86.2,73.0,30.04,WNW,284,3.0,7.0,65,0.00,,,0.00,40,weatherlink.com 1.10,2013-07-06 22:28:00,
2013-07-06 19:13:00,85.3,73.0,30.04,SW,232,5.0,9.0,67,0.00,,,0.00,30,weatherlink.com 1.10,2013-07-06 23:13:00,
2013-07-06 19:28:00,84.8,73.0,30.04,WSW,257,5.0,8.0,68,0.00,,,0.00,26,weatherlink.com 1.10,2013-07-06 23:28:00,
2013-07-06 19:43:00,84.1,73.0,30.04,SW,219,3.0,6.0,70,0.00,,,0.00,21,weatherlink.com 1.10,2013-07-06 23:43:00,
2013-07-06 19:58:00,83.5,73.0,30.05,SSE,166,2.0,5.0,71,0.00,,,0.00,16,weatherlink.com 1.10,2013-07-06 23:58:00,
2013-07-06 21:43:00,78.2,72.0,30.07,SW,236,1.0,3.0,80,0.00,,,0.00,0,weatherlink.com 1.10,2013-07-07 01:43:00,
2013-07-06 21:58:00,77.6,71.0,30.08,WSW,237,0.0,3.0,81,0.00,,,0.00,0,weatherlink.com 1.10,2013-07-07 01:58:00,
2013-07-06 22:13:00,76.9,71.0,30.08,South,178,0.0,2.0,82,0.00,,,0.00,0,weatherlink.com 1.10,2013-07-07 02:13:00,
2013-07-06 22:43:00,76.5,71.0,30.08,SSW,202,0.0,3.0,82,0.00,,,0.00,0,weatherlink.com 1.10,2013-07-07 02:43:00,
2013-07-06 22:58:00,74.8,70.0,30.08,SSW,202,0.0,0.0,86,0.00,,,0.00,0,weatherlink.com 1.10,2013-07-07 02:58:00,
2013-07-06 23:13:00,74.1,70.0,30.09,WSW,246,0.0,3.0,88,0.00,,,0.00,0,weatherlink.com 1.10,2013-07-07 03:13:00,
2013-07-06 23:28:00,73.0,70.0,30.09,WSW,246,0.0,1.0,90,0.00,,,0.00,0,weatherlink.com 1.10,2013-07-07 03:28:00,
2013-07-06 23:44:00,72.5,70.0,30.09,WSW,254,0.0,1.0,91,0.00,,,0.00,0,weatherlink.com 1.10,2013-07-07 03:44:00,
2013-07-06 23:59:00,72.2,70.0,30.09,West,275,0.0,2.0,92,0.00,,,0.00,0,weatherlink.com 1.10,2013-07-07 03:59:00,